Location: Poughquag
(41.6090°N, 73.6820°W)
Time: 09:00:53
(UTC-05:00)

Altair - Pass Details

Date: 28 November 2023
Orbit: 1501 x 1682 km, 47.2° (Epoch: 02 March)

Event Time Altitude Azimuth Distance (km) Brightness Sun altitude
Rises 08:50:46 0° 214° (SSW) 4,813 10.3 15.6°
Reaches altitude 10° 08:54:03 10° 208° (SSW) 3,804 9.9 16.0°
Maximum altitude 09:03:06 48° 138° (SE) 1,963 9.3 17.0°
Drops below altitude 10° 09:11:51 10° 68° (ENE) 3,691 9.8 18.0°
Sets 09:14:59 0° 63° (ENE) 4,660 10.2 18.4°
